sat.trackr.live / text

‹ back to catalog

ZACUBE-1 (TSHEPISOSAT)

NORAD 39417 · 2013-066B

PAYLOAD ACTIVE UNKNOWN

§ Identity

Operator
Country
SAFR
Launch date
2013-11-21
Launch site
DLS
Launch vehicle
Mass (kg)
RCS (m²)
0.07

Purposes: comms, tech_demo

External: N2YO · Heavens-Above · Gunter

§ Orbital elements

Epoch: 2026-09-12T15:27:29.928096Z

Period
95.89 min
Inclination
97.8132°
Eccentricity
0.0040008
Mean motion
15.01788424 rev/d
Perigee alt
533.6 km
Apogee alt
589.1 km
Semi-major
6,939.5 km
B*
3.2534e-4
RAAN
218.4269°
Arg perigee
320.6731°
Mean anomaly
39.1589°
Rev number
69,385

§ Raw data

ZACUBE-1 (TSHEPISOSAT)1 39417U 13066B   26255.64409639  .00004248  00000+0  32534-3 0  99982 39417  97.8132 218.4269 0040008 320.6731  39.1589 15.01788424693858

JSON: /api/v1/satellites/39417 · /tle

For live sub-satellite position, see the globe view (requires WebGL).

§ Visibility from observer

Set your observer location to see the next 7 days of passes ≥ 10°. The values pass through the URL so the page stays shareable.

No JS? Fill the form by hand. The geolocation button needs JavaScript.

§ Radio — SatNOGS DB

ModeDescriptionDownlinkUplink
CW 14.099 MHz CW Beacon 14.099 MHz
FSK FSK1k2 TLM 437.356 MHz
FSK FSK9K6 TLM 437.356 MHz

3 transmitters · refreshed weekly from db.satnogs.org